• în România
  • Lista ţărilor
  • Pe 7 zile
  • Temperatura apei
  • Hartă satelitară
  • Meteo pe hartă
  • Widget-uri
  • user-avatar
    Intrare

    Meteo pe oră la Valencia

    Astăzi, 17 Octombrie, Miercuri

    Timp Temperatura Precipitaţii Vânt Presiune Umiditate
    00:00 +24°C° 0 mm 1 m/s 716 mmHg 96%
    01:00 +24°C° 0 mm 1 m/s 716 mmHg 96%
    02:00 +24°C° 0 mm 1 m/s 716 mmHg 96%
    03:00 +23°C° 0 mm 1 m/s 716 mmHg 96%
    04:00 +23°C° 0 mm 1 m/s 716 mmHg 96%
    05:00 +24°C° 0 mm 1 m/s 716 mmHg 92%
    06:00 +24°C° 0 mm 1 m/s 717 mmHg 88%
    07:00 +25°C° 0 mm 1 m/s 717 mmHg 84%
    08:00 +28°C° 0 mm 1 m/s 717 mmHg 73%
    09:00 +31°C° 0 mm 1 m/s 718 mmHg 61%
    10:00 +34°C° 0 mm 1 m/s 718 mmHg 49%
    11:00 +34°C° 0 mm 1 m/s 717 mmHg 50%
    12:00 +34°C° 0 mm 1 m/s 716 mmHg 50%
    13:00 +35°C° 0 mm 2 m/s 716 mmHg 51%
    14:00 +34°C° 0.1 mm 2 m/s 715 mmHg 58%
    15:00 +31°C° 0.1 mm 2 m/s 715 mmHg 65%
    16:00 +30°C° 0.1 mm 2 m/s 714 mmHg 73%
    17:00 +28°C° 0.2 mm 2 m/s 715 mmHg 79%
    18:00 +27°C° 0.2 mm 2 m/s 715 mmHg 86%
    19:00 +25°C° 0.2 mm 2 m/s 716 mmHg 92%
    20:00 +25°C° 0.2 mm 1 m/s 716 mmHg 93%
    21:00 +25°C° 0.2 mm 1 m/s 716 mmHg 93%
    22:00 +24°C° 0.2 mm 1 m/s 716 mmHg 94%
    23:00 +24°C° 0.2 mm 1 m/s 716 mmHg 94%

    Mâine, 18 Octombrie, Joi

    Timp Temperatura Precipitaţii Vânt Presiune Umiditate
    00:00 +24°C° 0.2 mm 1 m/s 716 mmHg 95%
    01:00 +24°C° 0.2 mm 1 m/s 715 mmHg 95%
    02:00 +24°C° 0.2 mm 1 m/s 715 mmHg 95%
    03:00 +24°C° 0.2 mm 1 m/s 715 mmHg 95%
    04:00 +24°C° 0.2 mm 1 m/s 715 mmHg 95%
    05:00 +25°C° 0.1 mm 1 m/s 715 mmHg 91%
    06:00 +26°C° 0.1 mm 1 m/s 716 mmHg 88%
    07:00 +26°C° 0.1 mm 1 m/s 717 mmHg 85%
    08:00 +28°C° 0.4 mm 1 m/s 717 mmHg 78%
    09:00 +30°C° 0.4 mm 1 m/s 717 mmHg 72%
    10:00 +31°C° 0.4 mm 2 m/s 718 mmHg 66%
    11:00 +31°C° 1.1 mm 2 m/s 717 mmHg 68%
    12:00 +31°C° 1.1 mm 2 m/s 716 mmHg 70%
    13:00 +31°C° 1.1 mm 2 m/s 715 mmHg 73%
    14:00 +30°C° 2.2 mm 2 m/s 715 mmHg 78%
    15:00 +29°C° 2.2 mm 1 m/s 714 mmHg 82%
    16:00 +28°C° 2.2 mm 1 m/s 714 mmHg 87%
    17:00 +27°C° 1.1 mm 1 m/s 715 mmHg 89%
    18:00 +26°C° 1.1 mm 1 m/s 715 mmHg 91%
    19:00 +25°C° 1.1 mm 1 m/s 716 mmHg 93%
    20:00 +25°C° 0.7 mm 1 m/s 716 mmHg 94%
    21:00 +25°C° 0.7 mm 1 m/s 716 mmHg 94%
    22:00 +24°C° 0.7 mm 1 m/s 717 mmHg 95%
    23:00 +24°C° 0.4 mm 1 m/s 716 mmHg 95%

    Poimâine, 19 Octombrie, Vineri

    Timp Temperatura Precipitaţii Vânt Presiune Umiditate
    00:00 +24°C° 0.4 mm 1 m/s 716 mmHg 94%
    01:00 +24°C° 0.4 mm 1 m/s 716 mmHg 94%
    02:00 +24°C° 0.4 mm 1 m/s 715 mmHg 94%
    03:00 +24°C° 0.4 mm 1 m/s 715 mmHg 94%
    04:00 +24°C° 0.4 mm 1 m/s 715 mmHg 94%
    05:00 +24°C° 0.2 mm 1 m/s 716 mmHg 92%
    06:00 +23°C° 0.2 mm 0 m/s 716 mmHg 91%
    07:00 +24°C° 0.2 mm 0 m/s 717 mmHg 89%
    08:00 +27°C° 0.3 mm 1 m/s 717 mmHg 82%
    09:00 +29°C° 0.3 mm 1 m/s 717 mmHg 75%
    10:00 +30°C° 0.3 mm 1 m/s 717 mmHg 68%
    11:00 +30°C° 0.9 mm 1 m/s 717 mmHg 71%
    12:00 +30°C° 0.9 mm 1 m/s 716 mmHg 74%
    13:00 +30°C° 0.9 mm 1 m/s 715 mmHg 77%
    14:00 +29°C° 1.3 mm 1 m/s 715 mmHg 80%
    15:00 +28°C° 1.3 mm 1 m/s 714 mmHg 84%
    16:00 +27°C° 1.3 mm 1 m/s 714 mmHg 88%
    17:00 +26°C° 0.6 mm 1 m/s 714 mmHg 90%
    18:00 +25°C° 0.6 mm 1 m/s 715 mmHg 92%
    19:00 +24°C° 0.6 mm 1 m/s 715 mmHg 94%
    20:00 +24°C° 0.1 mm 1 m/s 715 mmHg 95%
    21:00 +24°C° 0.1 mm 1 m/s 716 mmHg 95%
    22:00 +24°C° 0.1 mm 1 m/s 716 mmHg 95%
    23:00 +24°C° 0.1 mm 1 m/s 716 mmHg 96%

    20 Octombrie, Sâmbătă

    Timp Temperatura Precipitaţii Vânt Presiune Umiditate
    00:00 +24°C° 0.1 mm 1 m/s 715 mmHg 96%
    01:00 +23°C° 0.1 mm 1 m/s 715 mmHg 96%
    02:00 +23°C° 0 mm 1 m/s 715 mmHg 96%
    03:00 +23°C° 0 mm 1 m/s 715 mmHg 96%
    04:00 +23°C° 0 mm 1 m/s 715 mmHg 96%
    05:00 +24°C° 0.1 mm 1 m/s 715 mmHg 93%
    06:00 +25°C° 0.1 mm 1 m/s 716 mmHg 91%
    07:00 +26°C° 0.1 mm 1 m/s 716 mmHg 88%
    08:00 +27°C° 0.8 mm 1 m/s 717 mmHg 84%
    09:00 +28°C° 0.8 mm 1 m/s 717 mmHg 81%
    10:00 +29°C° 0.8 mm 1 m/s 717 mmHg 77%
    11:00 +30°C° 1.9 mm 1 m/s 716 mmHg 78%
    12:00 +30°C° 1.9 mm 2 m/s 715 mmHg 78%
    13:00 +30°C° 1.9 mm 2 m/s 714 mmHg 78%
    14:00 +29°C° 2.3 mm 2 m/s 714 mmHg 82%
    15:00 +28°C° 2.3 mm 2 m/s 714 mmHg 86%
    16:00 +27°C° 2.3 mm 2 m/s 714 mmHg 90%
    17:00 +26°C° 2.1 mm 2 m/s 714 mmHg 91%
    18:00 +25°C° 2.1 mm 1 m/s 715 mmHg 93%
    19:00 +24°C° 2.1 mm 1 m/s 715 mmHg 95%
    20:00 +24°C° 0.5 mm 1 m/s 715 mmHg 95%
    21:00 +24°C° 0.5 mm 1 m/s 716 mmHg 96%
    22:00 +24°C° 0.5 mm 1 m/s 716 mmHg 96%
    23:00 +24°C° 0.4 mm 1 m/s 715 mmHg 96%

    21 Octombrie, Duminică

    Timp Temperatura Precipitaţii Vânt Presiune Umiditate
    00:00 +24°C° 0.4 mm 1 m/s 715 mmHg 96%
    01:00 +23°C° 0.4 mm 1 m/s 715 mmHg 96%
    02:00 +23°C° 0.3 mm 1 m/s 715 mmHg 96%
    03:00 +23°C° 0.3 mm 1 m/s 715 mmHg 96%
    04:00 +23°C° 0.3 mm 1 m/s 715 mmHg 96%
    05:00 +24°C° 0.4 mm 1 m/s 715 mmHg 94%
    06:00 +25°C° 0.4 mm 1 m/s 716 mmHg 92%
    07:00 +25°C° 0.4 mm 1 m/s 716 mmHg 90%
    08:00 +27°C° 0.7 mm 1 m/s 717 mmHg 87%
    09:00 +28°C° 0.7 mm 1 m/s 717 mmHg 84%
    10:00 +29°C° 0.7 mm 1 m/s 717 mmHg 81%
    11:00 +29°C° 1.5 mm 1 m/s 716 mmHg 82%
    12:00 +29°C° 1.5 mm 2 m/s 715 mmHg 83%
    13:00 +28°C° 1.5 mm 2 m/s 714 mmHg 84%
    14:00 +28°C° 1.4 mm 2 m/s 714 mmHg 86%
    15:00 +27°C° 1.4 mm 2 m/s 714 mmHg 87%
    16:00 +26°C° 1.4 mm 1 m/s 714 mmHg 89%
    17:00 +26°C° 0.8 mm 1 m/s 715 mmHg 91%
    18:00 +25°C° 0.8 mm 1 m/s 715 mmHg 93%
    19:00 +24°C° 0.8 mm 1 m/s 716 mmHg 95%
    20:00 +24°C° 0.4 mm 1 m/s 716 mmHg 95%
    21:00 +24°C° 0.4 mm 1 m/s 716 mmHg 95%
    22:00 +23°C° 0.4 mm 1 m/s 716 mmHg 95%
    23:00 +23°C° 0.3 mm 1 m/s 716 mmHg 95%

    22 Octombrie, Luni

    Timp Temperatura Precipitaţii Vânt Presiune Umiditate
    00:00 +23°C° 0.3 mm 1 m/s 715 mmHg 95%
    01:00 +23°C° 0.3 mm 1 m/s 715 mmHg 95%
    02:00 +23°C° 0 mm 1 m/s 715 mmHg 95%
    03:00 +23°C° 0 mm 1 m/s 715 mmHg 95%
    04:00 +23°C° 0 mm 1 m/s 715 mmHg 95%
    05:00 +23°C° 0 mm 1 m/s 715 mmHg 93%
    06:00 +24°C° 0 mm 1 m/s 716 mmHg 90%
    07:00 +25°C° 0 mm 1 m/s 717 mmHg 88%
    08:00 +27°C° 0.2 mm 1 m/s 717 mmHg 79%
    09:00 +29°C° 0.2 mm 1 m/s 717 mmHg 70%
    10:00 +31°C° 0.2 mm 2 m/s 717 mmHg 61%
    11:00 +31°C° 0.4 mm 2 m/s 717 mmHg 62%
    12:00 +31°C° 0.4 mm 2 m/s 716 mmHg 62%
    13:00 +31°C° 0.4 mm 2 m/s 715 mmHg 63%
    14:00 +30°C° 0.4 mm 2 m/s 715 mmHg 66%
    15:00 +29°C° 0.4 mm 2 m/s 715 mmHg 70%
    16:00 +29°C° 0.4 mm 2 m/s 714 mmHg 73%
    17:00 +27°C° 0.2 mm 2 m/s 715 mmHg 79%
    18:00 +25°C° 0.2 mm 2 m/s 715 mmHg 85%
    19:00 +24°C° 0.2 mm 2 m/s 716 mmHg 91%
    20:00 +24°C° 0 mm 2 m/s 716 mmHg 91%
    21:00 +23°C° 0 mm 1 m/s 716 mmHg 91%
    22:00 +23°C° 0 mm 1 m/s 716 mmHg 91%
    23:00 +23°C° 0 mm 1 m/s 716 mmHg 92%
    Arată mai mult